VIA003 TFFR-SVMG

Flight info

Callsign VIA003
Flight time N/A
Altitude 36000
Route DOM2F DOM A312 FOF UA324 GND A561 DAREK DCT AKPUX A561 AKPUX EKONU
Aircraft MD11/H-SDE1E2E3FGHIJ2J3J4J5M1RWXYZ/LB1D1

Departure

Time N/A
Airport Maryse Condé International Airport (TFFR)

Arrival

Time 2026-05-03 20:26
Airport Del Caribe Santiago Mariño International Airport (SVMG)
Time Latitude Longitude Altitude Speed Heading
2026-05-03 20:15 11.02970 -63.85007 9944 ft 343 kts 248°
2026-05-03 20:15 11.02104 -63.87229 9947 ft 331 kts 247°
2026-05-03 20:15 11.01262 -63.89384 9942 ft 323 kts 248°
2026-05-03 20:15 11.00448 -63.91481 9937 ft 314 kts 248°
2026-05-03 20:16 10.99657 -63.93523 9905 ft 307 kts 248°
2026-05-03 20:16 10.98871 -63.95557 9491 ft 305 kts 248°
2026-05-03 20:16 10.98092 -63.97567 9041 ft 303 kts 248°
2026-05-03 20:16 10.97320 -63.99549 8599 ft 298 kts 247°
2026-05-03 20:17 10.96562 -64.01484 8174 ft 293 kts 247°
2026-05-03 20:17 10.95809 -64.03418 7763 ft 288 kts 247°
2026-05-03 20:17 10.95081 -64.05294 7360 ft 282 kts 247°
2026-05-03 20:17 10.94368 -64.07131 6970 ft 277 kts 247°
2026-05-03 20:18 10.93667 -64.08936 6585 ft 272 kts 247°
2026-05-03 20:18 10.92977 -64.10709 6200 ft 268 kts 246°
2026-05-03 20:18 10.92287 -64.12483 5816 ft 263 kts 247°
2026-05-03 20:18 10.91618 -64.14197 5462 ft 259 kts 247°
2026-05-03 20:19 10.90962 -64.15887 5138 ft 253 kts 247°
2026-05-03 20:19 10.90337 -64.17505 5026 ft 238 kts 246°
2026-05-03 20:19 10.89731 -64.19068 4810 ft 229 kts 246°
2026-05-03 20:19 10.89138 -64.20515 4774 ft 216 kts 239°
2026-05-03 20:20 10.88116 -64.21583 4296 ft 209 kts 201°
2026-05-03 20:20 10.86777 -64.21802 4045 ft 188 kts 161°
2026-05-03 20:20 10.85767 -64.21088 4098 ft 181 kts 118°
2026-05-03 20:20 10.85539 -64.19830 3901 ft 190 kts 78°
2026-05-03 20:21 10.86042 -64.18584 3606 ft 189 kts 65°
2026-05-03 20:21 10.86641 -64.17426 3337 ft 183 kts 68°
2026-05-03 20:21 10.87127 -64.16230 3181 ft 182 kts 73°
2026-05-03 20:21 10.87490 -64.14989 2976 ft 182 kts 78°
2026-05-03 20:22 10.87772 -64.13731 2751 ft 178 kts 80°
2026-05-03 20:22 10.88005 -64.12556 2729 ft 163 kts 80°
2026-05-03 20:22 10.88220 -64.11465 2701 ft 154 kts 80°
2026-05-03 20:22 10.88438 -64.10382 2514 ft 155 kts 79°
2026-05-03 20:23 10.88654 -64.09338 2295 ft 146 kts 79°
2026-05-03 20:23 10.88866 -64.08323 2138 ft 146 kts 79°
2026-05-03 20:23 10.89081 -64.07295 1934 ft 152 kts 79°
2026-05-03 20:23 10.89301 -64.06237 1694 ft 151 kts 78°
2026-05-03 20:24 10.89516 -64.05228 1511 ft 144 kts 78°
2026-05-03 20:24 10.89711 -64.04218 1335 ft 147 kts 80°
2026-05-03 20:24 10.89908 -64.03178 1123 ft 151 kts 79°
2026-05-03 20:24 10.90114 -64.02132 917 ft 149 kts 79°
2026-05-03 20:25 10.90325 -64.01117 724 ft 146 kts 78°
2026-05-03 20:25 10.90535 -64.00094 490 ft 147 kts 76°
2026-05-03 20:25 10.90757 -63.99096 265 ft 147 kts 77°
2026-05-03 20:25 10.90966 -63.98077 101 ft 144 kts 77°
2026-05-03 20:26 10.91171 -63.97091 92 ft 119 kts 78°
2026-05-03 20:26 10.91271 -63.96603 92 ft 37 kts 78°
2026-05-03 20:26 10.91320 -63.96469 92 ft 17 kts 25°
2026-05-03 20:26 10.91447 -63.96482 92 ft 19 kts 349°
2026-05-03 20:27 10.91564 -63.96545 92 ft 20 kts 281°
2026-05-03 20:27 10.91550 -63.96659 92 ft 6 kts 260°
2026-05-03 20:27 10.91539 -63.96713 92 ft 7 kts 258°
2026-05-03 20:27 10.91554 -63.96742 92 ft 5 kts 346°
2026-05-03 20:28 10.91586 -63.96744 92 ft 2 kts 348°
2026-05-03 20:28 10.91600 -63.96748 92 ft 0 kts 349°
2026-05-03 20:48 10.91594 -63.96746 92 ft 2 kts 348°
2026-05-03 20:48 10.91579 -63.96743 92 ft 2 kts 347°
2026-05-03 20:48 10.91568 -63.96741 92 ft 2 kts 348°
2026-05-03 20:48 10.91557 -63.96738 92 ft 2 kts 348°
2026-05-03 20:49 10.91547 -63.96736 92 ft 2 kts 338°
2026-05-03 20:49 10.91538 -63.96726 92 ft 2 kts 281°
2026-05-03 20:49 10.91538 -63.96717 92 ft 1 kts 255°
2026-05-03 20:49 10.91539 -63.96714 92 ft 0 kts 257°
2026-05-03 20:51 10.91536 -63.96724 92 ft 2 kts 257°
2026-05-03 20:51 10.91531 -63.96750 92 ft 5 kts 259°
2026-05-03 20:52 10.91523 -63.96795 92 ft 7 kts 260°
2026-05-03 20:52 10.91512 -63.96856 92 ft 9 kts 259°
2026-05-03 20:52 10.91497 -63.96934 92 ft 12 kts 259°
2026-05-03 20:52 10.91473 -63.96996 92 ft 9 kts 222°